De Soto, IL

1:51 AM CST on February 25, 2017 (GMT -0600)
Southern Illinois

Weather History for KMDH - August, 2013

Change the Weather History Date:

Saturday, August 3, 2013

  Actual Average Record
Temperature  
Mean Temperature 78 °F -  
Max Temperature 86 °F 88 °F 107 °F (1918)
Min Temperature 70 °F 64 °F 47 °F (1920)
Cooling Degree Days 14    
Growing Degree Days 28 (Base 50)    
Moisture  
Dew Point 70 °F    
Average Humidity 84    
Maximum Humidity 96    
Minimum Humidity 63    
Precipitation  
Precipitation 0.17 in - - ()
Sea Level Pressure  
Sea Level Pressure 30.00 in    
Wind  
Wind Speed 3 mph (NNW)    
Max Wind Speed 8 mph    
Max Gust Speed -    
Visibility 7 miles    
Events Rain , Thunderstorm    
Averages and records for this station are not official NWS values.
T = Trace of Precipitation, MM = Missing Value Source: NWS Daily Summary

Daily Weather History Graph

Daily Weather History Graph

Search for Another Location

Airport or City:

Trip Planner

Search our weather history database for the weather conditions in past years. The results will help you decide how hot, cold, wet, or windy it might be!

Date:

Astronomy

Aug. 03, 2013 Rise Set
Actual Time 6:02 AM CDT 8:03 PM CDT
Civil Twilight 5:33 AM CDT 8:32 PM CDT
Nautical Twilight 4:58 AM CDT 9:07 PM CDT
Astronomical Twilight 4:20 AM CDT 9:45 PM CDT
Moon 3:12 AM CDT (8/3) 5:45 PM CDT (8/3)
Length of Visible Light 14h 58m
Length of Day
14h 00m
Waning Crescent, 9% of the Moon is Illuminated
Aug 3
Waning Crescent
Aug 6
New
Aug 14
First Quarter
Aug 20
Full
Aug 28
Last Quarter

Hourly Weather History & Observations

Time (CDT) Temp. Heat Index Dew Point Humidity Pressure Visibility Wind Dir Wind Speed Gust Speed Precip Events Conditions
12:52 AM 71.1 °F - 69.1 °F 93% 29.95 in 8.0 mi Calm Calm - N/A   Mostly Cloudy
1:52 AM 71.1 °F - 69.1 °F 93% 29.95 in 6.0 mi Calm Calm - N/A   Overcast
2:52 AM 71.1 °F - 69.1 °F 93% 29.94 in 7.0 mi Calm Calm - N/A   Overcast
3:52 AM 71.1 °F - 69.1 °F 93% 29.92 in 6.0 mi Calm Calm - N/A   Mostly Cloudy
4:42 AM 71.6 °F - 69.8 °F 94% 29.93 in 2.5 mi West 3.5 mph - 0.00 in Rain , Thunderstorm Light Thunderstorms and Rain
4:50 AM 71.6 °F - 69.8 °F 94% 29.93 in 1.2 mi NE 4.6 mph - 0.02 in Rain , Thunderstorm Heavy Thunderstorms and Rain
4:52 AM 71.1 °F - 69.1 °F 93% 29.92 in 1.5 mi ENE 4.6 mph - 0.03 in Rain , Thunderstorm Thunderstorms and Rain
4:55 AM 71.6 °F - 69.8 °F 94% 29.93 in 3.0 mi ENE 4.6 mph - 0.01 in Rain , Thunderstorm Light Thunderstorms and Rain
5:52 AM 71.1 °F - 70.0 °F 96% 29.94 in 5.0 mi Calm Calm - 0.13 in Rain , Thunderstorm Light Rain
6:12 AM 71.6 °F - 69.8 °F 94% 29.95 in 4.0 mi North 3.5 mph - 0.01 in   Overcast
6:23 AM 71.6 °F - 69.8 °F 94% 29.96 in 4.0 mi NNE 4.6 mph - 0.01 in   Overcast
6:52 AM 72.0 °F - 70.0 °F 93% 29.96 in 4.0 mi Calm Calm - 0.01 in   Overcast
7:52 AM 72.0 °F - 70.0 °F 93% 29.98 in 4.0 mi SSW 4.6 mph - N/A   Overcast
8:52 AM 73.0 °F - 71.1 °F 93% 30.00 in 3.0 mi NNW 3.5 mph - N/A   Overcast
9:52 AM 73.9 °F - 71.1 °F 91% 30.01 in 5.0 mi Calm Calm - N/A   Overcast
10:52 AM 73.9 °F - 72.0 °F 93% 30.04 in 6.0 mi West 4.6 mph - N/A   Overcast
11:22 AM 75.2 °F - 71.6 °F 89% 30.05 in 7.0 mi West 5.8 mph - N/A   Overcast
11:52 AM 75.0 °F - 72.0 °F 90% 30.05 in 6.0 mi WNW 8.1 mph - N/A   Overcast
12:02 PM 75.2 °F - 71.6 °F 89% 30.05 in 6.0 mi WNW 5.8 mph - N/A   Overcast
12:52 PM 79.0 °F - 72.0 °F 79% 30.03 in 6.0 mi North 5.8 mph - N/A   Haze
1:12 PM 78.8 °F - 71.6 °F 78% 30.03 in 6.0 mi NW 5.8 mph - N/A   Haze
1:47 PM 80.6 °F 84.6 °F 71.6 °F 74% 30.03 in 7.0 mi NNW 6.9 mph - N/A   Mostly Cloudy
1:52 PM 81.0 °F 85.2 °F 72.0 °F 74% 30.02 in 7.0 mi NNW 5.8 mph - N/A   Mostly Cloudy
2:52 PM 82.9 °F 87.5 °F 71.1 °F 67% 30.02 in 10.0 mi NNW 4.6 mph - N/A   Mostly Cloudy
3:01 PM 82.4 °F 86.3 °F 69.8 °F 66% 30.03 in 10.0 mi NNW 5.8 mph - N/A   Overcast
3:12 PM 82.4 °F 86.3 °F 69.8 °F 66% 30.03 in 10.0 mi North 5.8 mph - N/A   Overcast
3:52 PM 84.0 °F 88.4 °F 70.0 °F 63% 30.02 in 10.0 mi North 3.5 mph - N/A   Mostly Cloudy
4:52 PM 86.0 °F 92.2 °F 72.0 °F 63% 30.01 in 10.0 mi NNW 6.9 mph - N/A   Mostly Cloudy
5:52 PM 82.9 °F 87.0 °F 70.0 °F 65% 30.01 in 10.0 mi North 4.6 mph - N/A   Clear
6:52 PM 81.0 °F 84.4 °F 70.0 °F 69% 30.01 in 10.0 mi North 4.6 mph - N/A   Clear
7:52 PM 79.0 °F - 71.1 °F 77% 30.02 in 10.0 mi Calm Calm - N/A   Partly Cloudy
8:52 PM 75.0 °F - 71.1 °F 87% 30.04 in 10.0 mi North 3.5 mph - N/A   Clear
9:52 PM 73.9 °F - 68.0 °F 82% 30.07 in 10.0 mi North 3.5 mph - N/A   Clear
10:52 PM 72.0 °F - 68.0 °F 87% 30.09 in 10.0 mi NNW 3.5 mph - N/A   Clear
11:52 PM 70.0 °F - 66.9 °F 90% 30.09 in 9.0 mi Calm Calm - N/A   Clear